Tracking 29059 objects as of 18-Jun-2024
HD Live streaming from Space Station
objects crossing your sky now

STARLINK-3953

Track STARLINK-3953 now!
10-day predictions
STARLINK-3953 is classified as:


NORAD ID: 52559
Int'l Code: 2022-051AC
Perigee: 545.8 km
Apogee: 547.9 km
Inclination: 53.2 °
Period: 95.4 minutes
Semi major axis: 6917 km
RCS: Unknown
Launch date: May 13, 2022
Source: United States (US)
Launch site: AIR FORCE WESTERN TEST RANGE (AFWTR)
Your satellite tracking list
Your tracking list is empty




NASA's NSSDC Master Catalog

Two Line Element Set (TLE):
1 52559U 22051AC  24169.91882721  .00000761  00000-0  65925-4 0  9991
2 52559  53.2183  66.4569 0001539  88.1213 271.9955 15.08843473116501
Source of the keplerian elements: AFSPC